CZ-2D DEB, 44612

Orbit data source: Space-Track

CZ-2D DEB, 44612 is space debris in SSO originally from a launch on Mon, 09 Oct 2017 UTC launched from the Jiuquan Satellite Launch Center, China (JSC). Debris objects in space refer to the collection of defunct objects orbiting the Earth. Examples of debris include non-operational satellites, rocket bodies, and fragments generated from explosions, collisions, or faulty payload assembly.

Loading next visibility...
CZ-2D DEB details
Identifier
44612, 2017-060E
Orbit
SSO
Last TLE update14 hours ago
Origin
Flag of CNCASC (CN / PRC)
ManufacturerUnknown
MissionSpacecraft
Bus & MotorUnknown
MassUnknown
Launch date (UTC)
2017-10-09 (7 years ago)
Launch vehicleUnknown
Launch site
Jiuquan Satellite Launch Center, China (JSC)
Object type
Payload
Rocket body
Debris
Shape & HBRUnknown
Radar Cross SectionSmall (<0.1 m²)

Expand to show TLE details & history

TLE from 14 hours ago
0 CZ-2D DEB
1 44612U 17060E   24360.99284270  .00009853  00000-0  10818-2 0  9992
2 44612  97.6010  13.7638 0013643  86.8324 273.4454 14.87799772386667
Epoch: 2024-12-25T23:49Z
Definitive object data (Epoch: 2024-12-25T23:49:41.609Z)
Latitude0.00001°
Longitude-78.6382°
Altitude607.293 km
Speed7.556 km/s
True Right ascension00h 55m 03s
True Declination0° 00' 00"
Sunlit
Object was in daylight at TLE epoch
Visualization TLE readout
Latitude-6.49466°
Longitude101.04496°
Altitude610.77 km
Speed7.552 km/s
Apparent Right ascension12h 48m 01s
Apparent Declination-67° 08' 58"
Sunlit
Object is in daylight
Visualization observer readout
Local Sidereal Time12:56:11
Azimuth180.829° SSW
Elevation-17.077°
Doppler factor1
Orbital elements
Apogee altitude611.352 km
Perigee altitude592.306 km
Semi-major axis6,979.966 km
Eccentricity0.0013643
Inclination97.601°
RAAN13.7638°
Arg. of periapsis86.8324°
True anomaly273.28933°
Mean anomaly273.4454°
Eccentric anomaly273.36737°
Mean motion3.72189 °/min
BSTAR0.0010818
Orbital period96.73 mins
Loading maneuver chart data...
Loading historical data...
Loading historical data...
Loading historical data...
Loading historical data...
Loading historical data...
Loading historical data...
Loading historical data...
Other satellites on launch #60 in the year 2017 (2017-10-09 UTC)

CZ-2D DEB Visibility forecast

Observer location: undefined°, undefined

Span
Click to sort rows by Start time (UTC) header in descending order
Start Az.
Max El. time (UTC)
Max El. Az.
Max El.
End time (UTC)
End Az.
5 mins2024-12-26 14:55:29.617Z332.96° NNW2024-12-26 14:57:29.617Z300.38° NW19.22°2024-12-26 15:00:29.617Z249.045° W
4 mins2024-12-27 00:12:29.617Z97.731° ESE2024-12-27 00:14:29.617Z58.948° ENE19.493°2024-12-27 00:16:29.617Z26.345° NE
5 mins2024-12-27 01:47:29.617Z215.439° SW2024-12-27 01:49:29.617Z257.696° W26.67°2024-12-27 01:52:29.617Z318.386° NNW
|